This demonstration page uses our WeatherBlox Daily Observations layout. Learn more.

Left ArrowRight Arrow

Hourly Observations for September 22, 2020

Temp ( °F °C ) Dew Point ( °F °C ) Humidity (%) Winds ( mph kmh ) Pressure ( in mb ) Visibility ( mi km ) Precip ( " mm )
12:51 am 00:51 Clear 69 20.6 38 3.3 32 32 Calm 29.88 1012 10 16.0934 0 0
1:51 am 01:51 Clear 67 19.4 38 3.3 35 35 W 3 6 29.88 1012 10 16.0934 0 0
2:51 am 02:51 Clear 66 18.9 37 2.8 34 34 Calm 29.88 1012 10 16.0934 0 0
3:51 am 03:51 Clear 65 18.3 37 2.8 36 36 Calm 29.89 1012 10 16.0934 0 0
4:51 am 04:51 Clear 62 16.7 35 1.7 37 37 SSE 3 6 29.92 1013 10 16.0934 0 0
5:51 am 05:51 Clear 62 16.7 35 1.7 37 37 SE 5 7 29.93 1014 10 16.0934 0 0
6:51 am 06:51 Sunny 64 17.8 36 2.2 35 35 SSE 5 7 29.96 1015 10 16.0934 0 0
7:51 am 07:51 Sunny 74 23.3 39 3.9 28 28 SSE 7 11 29.95 1014 10 16.0934 0 0
8:51 am 08:51 Sunny 78 25.6 39 3.9 25 25 SSE 6 9 29.97 1015 10 16.0934 0 0
9:51 am 09:51 Sunny 83 28.3 40 4.4 22 22 S 3 6 29.96 1015 10 16.0934 0 0
10:51 am 10:51 Sunny 88 31.1 40 4.4 18 18 Calm 29.95 1014 10 16.0934 0 0
11:51 am 11:51 Sunny 92 33.3 39 3.9 16 16 VRB 7 11 29.91 1013 10 16.0934 0 0
12:51 pm 12:51 Sunny 94 34.4 41 5 16 16 undefined N/A 29.88 1012 10 16.0934 0 0
1:51 pm 13:51 Sunny 94 34.4 41 5 16 16 VRB 3 6 29.86 1011 10 16.0934 0 0
2:51 pm 14:51 Sunny 96 35.6 39 3.9 14 14 WNW 10 17 29.83 1010 10 16.0934 0 0
3:51 pm 15:51 Sunny 95 35 41 5 15 15 WNW 9 15 29.82 1010 10 16.0934 0 0
4:51 pm 16:51 Sunny 95 35 42 5.6 16 16 WNW 12 19 29.82 1010 10 16.0934 0 0
5:51 pm 17:51 Sunny 91 32.8 44 6.7 20 20 WNW 13 20 29.83 1010 10 16.0934 0 0
6:51 pm 18:51 Clear 88 31.1 45 7.2 22 22 WNW 15 24 29.85 1011 10 16.0934 0 0
7:51 pm 19:51 Clear 86 30 44 6.7 23 23 NW 12 19 29.86 1011 10 16.0934 0 0
8:51 pm 20:51 Clear 82 27.8 44 6.7 26 26 NW 10 17 29.88 1012 10 16.0934 0 0
9:51 pm 21:51 Clear 81 27.2 44 6.7 27 27 NW 12 19 29.88 1012 10 16.0934 0 0
10:51 pm 22:51 Clear 81 27.2 44 6.7 27 27 NW 10 17 29.87 1012 10 16.0934 0 0
11:51 pm 23:51 Clear 79 26.1 42 5.6 27 27 NW 9 15 29.87 1012 10 16.0934 0 0

Powered by AerisWeather